Location: Harwich
(41.7160°N, 69.9939°W)
Time: 16:51:35
(UTC+02:00)

AO-27 - Pass Details

Date: 19 September 2024
Orbit: 782 x 796 km, 98.7° (Epoch: 14 June)

Event Time Altitude Azimuth Distance (km) Brightness Sun altitude
Exits shadow 01:58:55 16° 71° (ENE) 1,962 9.2 -14.8°
Drops below altitude 10° 02:02:51 10° 23° (NNE) 2,365 10.1 -15.5°
Enters shadow 03:09:17 -50° 166° (SSE) 10,800 13.4 -26.9°
